Weather in Pavlovskaya

Russia / Krasnodar Krai     46°07′49″N   39°47′27″E
temp.,
°C
wind,
m/s
gust,
m/s
humid.,
%
clouds,
%
prec.,
mm/h
press.,
hPa
HPBL,
m
26 june, sun
sun2600:00+17nne4976100 0.0 1010185
03:00+16ene41082100 0.0 1011203
06:00+18ene2475100 0.1 1011133
09:00+17nnw3592100 2.1 1011143
12:00+26ne6953100 0.1 10111118
15:00+25ne51053100 0.1 1010799
18:00+24nne51159100 0.4 1009368
21:00+18sw3595100 1.0 1011149
27 june, mon
mon2700:00+19n2296100 1.4 101172
03:00+18ene41586100 3.9 1011493
06:00+17ne41185100 3.5 1013406
09:00+19ene51179100 3.6 1013589
12:00+18ne5109299 3.0 1015466
15:00+20nne4779100 3.8 1014298
18:00+21nne477987 0.5 1013203
21:00+21ne4107595 0.6 1013181
28 june, tue
tue2800:00+18ne51272100 0.6 1013231
03:00+18ene41168100 0.6 1013235
06:00+19ene61355100 0.0 1013337
09:00+16ene41092100 2.3 1014334
12:00+16e51088100 1.4 1015387
15:00+22e61057100 2.0 1015682
18:00+21se3666100 0.0 1014290
21:00+18ene2371100 0.0 101550
29 june, wed
wed2900:00+18ne3666100 0.0 1014123
03:00+17ne366899 0.0 101493
06:00+18ene376178 0.0 1015155
09:00+25ene695344 0.0 1014685
12:00+30ene784241 0.0 10141650
15:00+31ene783677 0.0 10132321
18:00+29e673838 0.0 10142139
21:00+23ne5114919 0.0 1015255
30 june, thu
thu3000:00+20ene6143990 0.0 1015354
03:00+18ene5133912 0.0 1016310
06:00+17ene513400 0.0 1016320
09:00+24ene79260 0.0 1016933
12:00+28ene77200 0.0 10161976
15:00+29ene67194 0.0 10152265
18:00+28ene67212 0.0 10152324
21:00+21ene512351 0.0 1016265